loading
DOY 198 | 2024-07-16T11:33:16Z

THOR ABLESTAR DEB, 470

Orbit data source: Space-Track

THOR ABLESTAR DEB, 470 is space debris in LEO originally from a launch on Thu, 29 Jun 1961 UTC launched from the Air Force Eastern Test Range (AFETR). Debris objects in space refer to the collection of defunct objects orbiting the Earth. Examples of debris include non-operational satellites, rocket bodies, and fragments generated from explosions, collisions, or faulty payload assembly.

Loading next visibility...
Loading greatness...
THOR ABLESTAR DEB details
NORAD ID470
COSPAR ID
1961-015FG
Orbit
LEO
Last TLE update9 hours ago
Origin
Flag of USUSAF SSD (US)
ManufacturerUnknown
BusUnknown
MotorUnknown
MassWet unknown, Dry mass unknown
Launch date (UTC)
1961-06-29 (63 years ago)
Launch vehicleUnknown
Launch site
Air Force Eastern Test Range (AFETR)
Object type
Payload
Rocket body
Debris
Radar Cross SectionSmall (<0.1 m²)
Predictive object data (real-time)
Latitude66.33612°
Longitude31.56035°
Altitude861.23 km
Speed7.438 km/s
Apparent Right ascension11h 59m 35s
Apparent Declination51° 52' 50"
Sunlit
Object is in daylight
Predictive observer data (real-time)
Local Sidereal Time00:11:59
Azimuth1.914° NNE
Elevation1.836°
Doppler factor1
Orbital elements
Apogee912.5 km
Perigee821.003 km
Semi-major axis7,244.889 km
Eccentricity0.0063146
Inclination66.2307°
RAAN277.458°
Arg. of periapsis22.0221°
True anomaly338.08643°
Mean anomaly338.3553°
Mean motion3.51962 °/min
BSTAR0.00070535
Period102.28 mins
Definitive object data (Epoch: 2024-07-16T02:36:29.771Z)
Latitude0.00002°
Longitude-56.09832°
Altitude827.856 km
Speed7.461 km/s
True Right ascension18h 29m 49s
True Declination0° 00' 00"
Sunlit
Object was in full shadow at TLE epoch
TLE from 9 hours ago
0 THOR ABLESTAR DEB
1   470U 61015FG  24198.10867791  .00001125  00000-0  70535-3 0  9999
2   470  66.2307 277.4580 0063146  22.0221 338.3553 14.07393533214127
Epoch: 2024-07-16T02:36Z
No data available

THOR ABLESTAR DEB Visibility forecast

Observer location: 39.9160978°, -105.1181434

THOR ABLESTAR DEB is not visible in the next 10 days
Span
Click to sort rows by Start time (UTC) header in descending order
Start Az.
Max El. time (UTC)
Max El. Az.
Max El.
End time (UTC)
End Az.